Printer-friendly version

IAU Minor Planet Center

Minor Planet Center

MPEC 2008-M07 : 2008 LV16

The following Minor Planet Electronic Circular may be linked-to from your own Web pages, but must not otherwise be redistributed electronically.


Read MPEC 2008-M06 Read MPEC 2008-M08


M.P.E.C. 2008-M07                                Issued 2008 June 16, 14:21 UT

     The Minor Planet Electronic Circulars contain information on unusual
         minor planets and routine data on comets.  They are published
   on behalf of Commission 20 of the International Astronomical Union by the
          Minor Planet Center, Smithsonian Astrophysical Observatory,
                          Cambridge, MA 02138, U.S.A.

             Prepared using the Tamkin Foundation Computer Network

                              MPC@CFA.HARVARD.EDU
          URL http://www.cfa.harvard.edu/iau/mpc.html  ISSN 1523-6714

                                   2008 LV16

Observations:
     K08L16V* C2008 06 15.37980 20 41 36.24 -05 01 20.0          19.5 V EM007703
     K08L16V  C2008 06 15.38522 20 41 37.93 -05 01 01.9          18.7 V EM007703
     K08L16V  C2008 06 15.39066 20 41 39.62 -05 00 40.7          19.2 V EM007703
     K08L16V  C2008 06 15.39608 20 41 41.24 -05 00 22.3          19.3 V EM007703
     K08L16V  C2008 06 16.02954 20 45 06.04 -04 21 47.5          18.3 V EM007J77
     K08L16V  C2008 06 16.05122 20 45 13.01 -04 20 26.6          18.7 V EM007J77
     K08L16V  C2008 06 16.06924 20 45 18.92 -04 19 18.0          18.6 V EM007J77
     K08L16V  C2008 06 16.33723 20 46 48.36 -04 02 14.5          18.3 V EM007703
     K08L16V  C2008 06 16.34265 20 46 49.98 -04 01 55.0          18.4 V EM007703
     K08L16V  C2008 06 16.34802 20 46 51.88 -04 01 34.4          19.2 V EM007703
     K08L16V  C2008 06 16.35344 20 46 53.61 -04 01 13.5          19.0 V EM007703
     K08L16V 5C2008 06 16.46493 20 47 30.08 -03 54 06.4          18.6 R EM007673
     K08L16V 5C2008 06 16.47025 20 47 31.79 -03 53 45.8                 EM007673
     K08L16V 5C2008 06 16.47486 20 47 33.30 -03 53 28.5                 EM007673
     K08L16V 5C2008 06 16.48183 20 47 35.56 -03 53 01.2                 EM007673

Observer details:
673 Table Mountain Observatory, Wrightwood.  Observer J. Young.  0.61-m f/16
    Cassegrain + CCD.
703 Catalina Sky Survey.  Observer A. Boattini.  Measurers E. C. Beshore,
    A. Boattini, G. J. Garradd, A. R. Gibbs, A. D. Grauer, R. E. Hill,
    R. A. Kowalski, S. M. Larson, R. H. McNaught.  0.68-m Schmidt + CCD.
J77 Golden Hill Observatory, Stourton Caundle.  Observer R. Miles.  0.28-m
    f/10 Schmidt-Cassegrain + CCD.

Orbital elements:
2008 LV16                                           PHA, Earth MOID = 0.0030 AU
Epoch 2008 May 14.0 TT = JDT 2454600.5                  MPC
M 335.45030              (2000.0)            P               Q
n   0.25789097     Peri.  117.95689     +0.99565127     +0.05377141
a   2.4444357      Node   239.05168     -0.07740347     +0.93190115
e   0.6776632      Incl.    5.08894     +0.05183878     +0.35870444
P   3.82           H   19.7           G   0.15           U   9
Residuals in seconds of arc
080615 703  0.4-  0.5+    080616 J77  0.3-  0.8-    080616 703  0.1+  0.1+
080615 703  0.0   0.8-    080616 J77  1.4+  0.3+    080616 673  0.3+  0.1+
080615 703  0.4+  0.9+    080616 703  0.4+  1.0+    080616 673  0.1-  0.1+
080615 703  0.2-  0.2-    080616 703  1.8-  0.2-    080616 673  0.0   0.4-
080616 J77  0.2-  0.6-    080616 703  0.5+  0.1-    080616 673  0.2-  0.0

Ephemeris:
2008 LV16                a,e,i = 2.44, 0.68, 5                   q = 0.7879
Date    TT    R. A. (2000) Decl.     Delta      r     Elong.  Phase     V
2008 06 13    20 29.84   -07 12.6    0.305    1.244   133.2    36.5    19.1
2008 06 18    20 56.54   -02 09.9    0.254    1.194   129.5    41.0    18.7
2008 06 23    21 32.90   +04 53.2    0.212    1.144   122.6    48.5    18.4
2008 06 28    22 23.77   +14 18.4    0.181    1.096   111.3    59.8    18.3
2008 07 03    23 33.26   +24 58.2    0.167    1.048    96.2    74.7    18.5
2008 07 08    00 57.19   +33 30.3    0.174    1.002    80.3    89.9    19.1
2008 07 13    02 18.82   +37 33.5    0.198    0.959    67.6   101.4    19.8
2008 07 18    03 24.17   +38 09.5    0.234    0.918    59.1   108.3    20.4
2008 07 23    04 12.36   +37 11.3    0.278    0.882    54.1   111.1    20.9

Sonia Keys                   (C) Copyright 2008 MPC           M.P.E.C. 2008-M07

Read MPEC 2008-M06 Read MPEC 2008-M08


Our Web policy. Index to the CBAT/MPC/ICQ pages.


Valid HTML 4.01!